Карточка аэропорта UIUU

Внимание!
Информация на этой странице в стадии наполнения.
Если вы не увидели какой-то информации, или заметили неточность - пожалуйста сообщите нам!
Спасибо!
Команда RU-STAFF
Название аэропортаМухино
Название аэропорта (англ.)Mukhino
Превышение1699 ft. (517.9 m.)
Координаты51°48.45', 107°26.4'
Высота перехода1800m
Эшелон переходаFL090
Коды ответчика2701-2717
Зона ОрВДИркутск РПИ (UIII)
Данные METARUIUU 211100Z 33007G12MPS 300V010 9999 -SHRA BKN034CB 09/05 Q1009 R26/290250 NOSIG RMK MT OBSC QFE712/0950
Проноз погоды (TAF)UIUU 210800Z 2109/2209 34008G15MPS 9999 -SHRA OVC020CB TEMPO 2109/2206 OVC011CB
NOTAMshow/hide NOTAM
AWOS   TABLE

Информация о ВПП

ВПП Длина ВПП (м.) Покрытие Курс ВПП Частота ILS
263400Цементобетон263110.3
083400Цементобетон83111.3

Диспетчерские позиции

Позывной Наименование органа УВД Частота
UIUU_TWRУлан-Удэ-Вышка118.200
UIUU_APPУлан-Удэ-Подход129.300



Спутниковое изображение